KOMPSAT-7

基本信息
目录编号:
66820
目录名称:
KOMPSAT-7
国际标识:
2025-279A
轨道中心:
EARTH
卫星名称:
KOMPSAT-7
卫星全名:
KOMPSAT-7
卫星状态:
在轨 (已飞行65 天)
发射日期:
2025-12-01 UTC
国别 :
(ESA)
星等 :
--
轨道信息
数据来源 国际轨道数据
星历时间: 2026-02-03T22:41:51+0800
11小时前
查看轨道信息
半长轴: 6941.458km
偏心率: 0.0011749
轨道倾角: 97.659°
近地点辐角 88.695°
升交点赤经 344.643°
平近点角 271.563°
近地点: 555.165km
远地点: 571.477km
周期: 95.926分钟
每日圈数: 15.011591
详细信息
使用方式:
暂无
2D轨道图
3D轨道图
轨道高度分析图
轨道倾角分析图
轨道综合分析图
查看轨道综合分析图